MIMAN

Satellite information

Favourite Embed

Satellite Type and Status

PAYLOADIN ORBIT

Key statistics

Satellite MIMAN at a glance.

Uptime

1174

Days in orbit

Revolutions

≈ 14.6

Per day

Orbit

SSO

Sun Synchronous Orbit

Inclination

98.2

Latest

Satellite identification and parameters

Extended collection of information and parameters for MIMAN.

Object identification

Identified? True

Debris? False

Object name: MIMAN

International designator: 2022-065G

Object number (NORAD): 52900

Object ID (CCSDS): 52900

Country: SOUTH KOREA (SKOR)

Current information (Y/N): Y

RCS size: SMALL

Orbital parameters

Period: 98.543 minutes

Inclination: 98.1861 deg

SMA: 7067.15 km

Apoapsis: 694.325 km

Periapsis: 683.706 km

RAAN: 29.6016 deg

Eccentricy: 0.0007513

Argument of periapsis: 182.8638 deg

Mean anomaly: 177.2521 deg

Mean motion: 14.61289473 rev/day

Mean motion (dot): 0.00001239 rev/day2

B* drag term: 0.00026041081 1/REarth

Two-line elements (TLE)

Creation date: Sept. 7, 2025, 3:09 a.m.

Reference frame: TEME

Reference center: EARTH

Epoch: Sept. 6, 2025, 9:42 p.m. UTC

TLE line 0: 0 MIMAN

TLE line 1: 1 52900U 22065G 25249.90424770 .00001239 00000-0 26041-3 0 9997

TLE line 2: 2 52900 98.1861 29.6016 0007513 182.8638 177.2521 14.61289473169069

Live tracking on map

Real-time ground track for satellite MIMAN.

In-orbit conjunctions

There are no conjunctions computed for MIMAN, at the moment. Check back to stay up to date, as we update our databases every day.

Go to all conjunctions

Associated space launch

Second flight of the KSLV-II "Nuri" launch vehicle, carrying a dummy satellite Payload of 1500 kg to sun-synchronous orbit. The mission will in addition launch the performance verification satellite (PVSAT) and four Cubesats: - CubeSat (6U) STEP Cube Lab-II - CubeSat (3U) SNUGLITE-II - CubeSat (3U) MIMAN - CubeSat (3U) RANDEV

MIMAN was lifted into orbit during the mission ‘Nuri | Flight Test 2’, on board a Nuri space rocket.

The launch took place on June 21, 2022, 7 a.m. from LC-2.

For more information about the launch, click the button.

Launch to space Nuri | Flight Test 2
Nuri | Flight Test 2

Agency: N/A

Status: Launch Successful

Launch date: June 21, 2022, 7 a.m. UTC

Rocket: Nuri

Launch pad: LC-2

Location: Naro Space Center, South Korea

...

Latest news about this satellite

News about space launch
KARI reaches orbit on second test flight of domestic Nuri rocket

The Korean Aerospace Research Institute (KARI) has conducted its second launch of the Korea Space Launch Vehicle (KSLV)-II rocket, also known as Nuri. This was Nuri’s return to flight after nearly reaching orbit on its previous mission. The rocket lifted ...

News about space launch
South Korean rocket puts satellites in orbit for the first time in second flight

South Korea’s homegrown rocket KSLV-2 successfully put satellites into low Earth orbit for the first time in its second flight June 21.


Newsletter sign-up

Weekly statistics, charts and insights to help you stay on top of the space industry.